GFSNGP_con_mlcape_159.txt.gz
CAPE
9 0 29 44 16 14 17 13 23 6 24 148 187 41 103 280 526 483 530 563 790 909 1076 1156 1334 1082 1144 1076 1167 771 1254 1493 1505 1332 1404 1482 1371 1433 1419 1457 1523 1446 1334 1210
4 82 16 12 30 28 24 33 28 22 24 8 54 16 98 224 485 437 470 292 629 751 693 820 1061 977 926 1033 1008 816 1023 1296 1565 1468 1236 1346 1636 1317 1498 1483 1456 1304 1275 1284
29 70 80 17 22 22 21 23 30 34 34 37 100 0 42 222 394 448 513 687 563 535 617 694 423 703 677 953 937 816 629 1176 1539 1594 1840 1805 1962 1801 1521 1464 1349 1328 1396 1279
54 41 36 91 37 10 10 12 22 12 101 144 97 26 137 204 251 461 533 792 542 429 398 413 204 105 42 171 346 458 462 428 660 1090 1453 1449 1374 1424 1587 1295 1052 1495 1286 1273
78 57 45 90 21 7 0 0 8 17 17 50 99 95 294 388 588 837 898 1032 718 641 477 227 77 169 134 82 5 0 0 26 408 333 617 620 781 999 1488 1367 1276 1372 1549 1407
40 61 23 57 33 7 0 0 0 2 16 147 272 173 23 831 829 1237 1653 1286 1242 868 716 686 602 475 71 14 12 39 1 0 35 76 272 401 574 685 581 715 486 284 348 537
65 81 55 15 4 10 0 4 23 6 1 165 168 800 1083 781 1083 1334 1075 1096 963 876 853 667 728 608 656 542 651 661 528 165 64 91 132 132 138 325 224 65 4 8 32 1
78 82 59 43 77 64 2 67 0 0 0 118 440 1152 957 1102 1199 1262 1183 1084 1089 846 652 508 510 586 699 635 657 647 633 526 552 361 340 231 337 221 75 37 30 2 0 0
94 78 142 48 29 81 4 36 0 0 80 270 1134 952 640 765 673 655 151 22 0 0 2 43 107 301 460 553 386 530 371 209 75 70 54 139 138 117 60 5 2 5 2 1
48 3 163 90 63 39 47 37 54 34 230 548 741 723 650 441 294 131 107 36 15 2 0 19 44 68 429 354 277 316 133 59 3 8 24 42 56 79 59 37 29 3 5 4
81 141 130 124 46 138 167 145 81 209 460 637 657 684 480 388 282 150 151 97 44 25 0 1 6 89 94 111 188 40 16 34 38 0 0 0 0 0 3 0 0 20 18 4
243 593 391 244 243 227 328 235 193 414 602 620 650 488 512 459 273 236 236 188 145 45 1 2 22 113 78 74 62 2 1 0 30 75 29 0 0 0 0 0 0 0 0 0
55 112 625 598 414 362 355 286 340 531 610 717 586 503 351 355 318 205 228 219 109 22 13 12 81 105 215 107 73 23 54 85 3 38 14 4 2 1 0 0 0 0 0 0
176 172 677 398 240 211 455 490 514 586 663 397 246 165 88 123 321 65 55 58 14 3 8 90 148 210 306 236 142 136 215 0 9 4 1 0 1 4 3 0 1 0 0 0
144 158 449 434 545 483 573 582 485 353 217 129 69 62 11 0 12 8 4 1 0 4 29 236 288 336 316 360 439 425 153 159 202 191 126 78 25 33 27 3 7 3 0 0
194 267 294 628 564 150 266 458 316 276 76 50 32 2 0 0 65 79 0 0 0 22 76 311 360 492 551 557 626 461 461 376 269 226 85 121 93 7 0 0 0 0 1 1
150 105 245 516 583 602 440 275 267 216 82 7 0 0 25 66 147 11 0 0 0 71 110 244 516 497 641 780 693 512 449 295 305 333 256 138 9 5 4 0 0 0 0 0
80 51 124 257 538 472 300 231 142 174 86 1 1 80 207 296 182 59 20 9 21 61 89 163 337 603 576 411 195 50 117 72 116 90 27 2 8 1 0 0 0 0 0 0
2 13 131 138 393 178 529 345 151 182 138 30 86 201 361 422 371 216 119 109 123 57 66 118 131 122 163 83 36 0 8 15 36 25 10 0 0 1 0 0 0 0 0 0
1 46 109 167 170 250 486 233 151 172 147 120 192 252 463 511 514 410 333 312 208 110 30 99 130 15 171 189 0 124 0 0 1 4 1 0 0 0 0 0 0 0 0 0
36 79 66 114 150 290 438 408 186 257 280 286 432 601 724 677 653 634 647 576 412 143 118 131 62 22 63 130 0 27 52 0 1 0 0 0 1 0 5 9 2 0 0 3
83 73 85 139 187 344 320 385 324 334 605 671 801 934 997 976 818 808 664 561 513 106 145 94 39 30 4 2 0 0 0 1 2 2 3 5 7 10 13 18 21 20 11 9
88 89 94 150 130 159 187 165 314 445 546 753 1082 1134 1112 931 940 808 720 617 582 161 98 90 46 0 0 0 1 12 29 10 2 2 3 9 10 8 3 4 15 23 20 23
118 157 154 159 188 246 292 310 240 379 560 811 936 1005 943 794 704 677 505 454 378 266 139 128 30 0 0 0 10 37 32 81 68 21 12 6 17 19 18 5 1 0 0 8
371 301 297 233 234 239 304 451 360 312 710 891 901 1001 917 677 383 413 440 409 286 360 195 41 6 0 17 59 48 52 91 179 187 213 189 135 109 94 63 39 33 33 13 30
571 543 414 471 309 206 205 158 330 206 482 543 655 734 614 509 433 333 387 455 412 321 273 207 150 84 106 73 65 112 194 257 253 283 267 302 389 362 311 251 135 93 72 88
321 254 486 488 445 271 122 163 281 157 185 200 312 379 289 256 300 225 246 505 508 300 282 368 349 243 244 175 101 80 192 293 275 321 406 428 447 387 428 458 366 243 276 173

GFSNGP_con_mlcape_162.txt.gz
CAPE
0 27 0 0 30 34 0 0 9 32 1 206 336 216 99 343 387 530 514 758 1024 961 984 1142 1243 1394 1309 1489 1392 1675 1420 1341 1244 1331 1086 1199 1025 1232 1242 1322 1249 1500 1140 1260
0 0 0 0 0 17 1 15 14 5 0 40 227 213 228 404 543 535 653 475 866 763 1020 897 1142 1295 1395 1100 1123 852 919 776 644 347 127 0 11 906 1093 1097 1028 1072 1162 1231
0 0 4 0 0 66 29 38 25 21 99 257 178 121 96 314 426 456 582 593 723 694 874 883 761 1133 1038 1121 1292 1048 872 611 606 415 1 0 20 776 887 799 1099 1271 1309 1144
1 16 4 4 16 8 31 19 13 22 101 90 372 113 54 158 294 442 566 908 768 658 551 297 328 190 229 768 816 741 318 391 345 412 512 691 830 987 1657 1397 797 731 736 1206
102 3 18 48 14 75 13 11 1 6 39 176 242 149 164 86 159 528 473 931 854 630 495 571 470 392 97 0 1 2 3 35 96 59 14 30 573 772 1058 1293 1464 1367 1046 1029
42 18 0 96 38 0 0 0 0 0 32 233 257 116 23 214 392 802 1117 997 924 745 669 591 214 95 153 10 0 0 0 0 0 67 29 8 66 397 619 776 678 486 316 270
59 33 0 69 64 0 1 0 1 2 4 358 412 866 883 923 922 1611 1652 1598 1359 833 818 892 688 653 633 540 406 459 189 102 36 35 13 62 85 148 268 238 117 113 59 0
93 40 19 62 103 0 0 0 23 39 199 517 1224 1226 1057 1178 1752 1482 1293 1012 1021 1001 922 799 880 741 847 785 704 587 578 638 671 539 242 251 177 219 140 106 63 26 0 0
61 40 149 148 18 66 0 16 23 3 111 885 1334 1252 1265 1343 1567 1232 1208 1231 1149 811 540 363 321 396 579 800 620 607 564 245 121 144 86 83 120 106 77 84 74 36 21 1
302 190 239 169 14 8 11 7 7 17 143 566 1287 984 1152 1164 979 468 112 25 15 20 10 26 126 52 569 426 263 497 164 69 10 2 1 0 9 8 22 54 39 49 12 15
38 350 447 31 26 40 4 17 38 52 206 792 883 732 686 569 345 234 121 43 20 8 0 19 25 35 94 142 68 126 88 74 22 0 0 0 0 0 0 0 0 18 11 2
2 0 2 251 69 23 22 44 38 213 510 538 815 862 716 488 398 341 288 159 61 16 7 26 2 14 7 133 191 18 82 190 167 100 11 0 0 0 0 0 0 0 0 0
0 0 0 0 15 5 244 141 208 483 551 644 777 674 699 642 463 376 258 80 3 6 15 18 8 36 43 67 101 83 193 245 149 103 76 28 0 0 0 0 0 0 0 0
5 0 0 0 119 127 138 194 413 561 657 702 627 594 542 499 360 337 146 14 16 0 25 4 38 121 134 191 159 113 233 67 148 123 51 10 36 64 5 1 1 0 0 0
33 119 136 109 231 182 159 316 472 607 604 599 474 266 216 520 277 26 16 5 0 0 142 33 210 156 188 339 310 387 336 160 208 207 191 156 166 98 47 65 19 0 0 0
52 162 315 180 257 374 447 407 532 470 339 264 124 119 60 64 0 20 0 0 0 2 99 153 184 325 290 307 453 499 412 371 438 379 317 299 176 176 142 89 43 7 0 0
14 40 201 199 74 402 591 434 304 297 143 100 111 0 0 5 83 56 0 0 0 10 127 186 269 392 361 540 644 586 676 578 491 474 416 363 253 202 145 124 140 113 7 0
20 29 174 247 608 285 399 232 380 214 121 48 2 1 33 118 88 29 0 0 0 25 19 150 239 352 385 574 768 588 647 313 392 612 565 412 118 0 0 0 0 0 0 0
159 104 28 60 492 559 416 388 325 170 59 5 54 156 265 268 140 68 44 9 15 72 85 115 96 183 222 147 36 1 43 16 34 76 42 10 6 2 3 1 0 0 0 0
56 6 21 156 235 46 27 247 613 236 99 69 169 402 584 588 404 233 173 162 137 60 76 111 78 36 95 38 0 0 0 1 5 16 41 2 0 3 6 0 0 3 1 0
41 3 43 104 189 202 452 359 111 83 73 240 274 608 754 839 722 569 461 410 349 189 55 80 140 0 36 66 0 0 63 0 0 0 1 0 0 0 4 10 0 0 0 3
15 23 74 82 116 123 204 23 68 11 117 104 548 757 1018 1131 1015 846 738 609 684 114 124 127 115 47 18 20 14 0 0 2 0 1 0 0 0 0 0 0 8 12 1 0
0 59 64 140 162 207 91 6 1 16 2 39 890 1020 1298 1084 1107 1085 1007 927 644 104 114 173 18 1 0 0 0 0 0 0 0 0 0 2 3 2 1 3 8 17 18 16
40 38 111 67 65 102 219 389 286 456 208 1155 1384 1494 1468 1060 1132 974 896 731 541 217 120 174 6 0 0 0 0 3 31 67 80 0 0 3 25 37 14 7 0 0 0 3
123 89 169 31 53 89 394 341 375 506 807 1103 1128 1443 1484 1285 997 831 572 619 274 299 157 51 3 0 0 4 7 41 61 120 184 218 184 197 105 47 33 49 55 86 47 52
451 161 124 3 59 165 231 397 168 178 490 459 705 1116 1000 946 874 546 437 188 104 425 313 52 0 0 9 51 37 69 99 134 161 161 172 239 406 436 425 339 273 160 203 163
460 83 146 343 300 243 100 66 81 52 94 277 508 754 800 673 611 366 232 416 409 402 395 197 110 20 108 158 109 81 95 163 102 227 272 319 229 177 195 87 0 0 1 129

GFSNGP_con_mlcape_165.txt.gz
CAPE
0 4 17 0 0 0 0 21 24 151 224 389 318 489 566 452 542 543 728 968 936 960 791 439 318 779 1261 1190 1282 1331 1296 937 684 268 290 749 673 788 620 801 774 916 633 528
0 0 0 0 0 0 11 38 19 28 0 201 335 246 402 403 669 560 882 960 786 742 652 495 566 821 1055 1196 943 972 845 557 410 9 0 217 253 142 326 638 691 758 799 696
0 0 0 4 0 13 1 0 11 0 86 259 351 218 357 470 553 504 661 757 718 672 335 575 471 851 908 962 1101 806 642 436 424 212 178 201 128 113 162 129 593 736 727 930
1 11 2 0 2 0 4 5 11 34 94 94 245 425 462 575 537 535 687 642 655 271 2 97 84 60 374 552 558 433 288 327 358 206 150 124 34 28 45 19 433 555 700 667
14 7 70 12 34 0 0 7 0 191 313 316 189 191 413 413 418 578 717 731 602 144 38 207 34 1 0 0 4 9 38 92 182 135 8 0 0 69 1 1 395 376 452 693
4 0 0 53 55 4 0 0 2 5 354 359 159 146 185 342 387 791 900 715 526 328 311 77 12 85 0 0 0 0 0 0 6 58 5 10 0 0 0 18 316 230 134 78
1 0 0 129 79 40 7 0 0 1 351 290 203 335 314 596 876 937 849 733 586 403 288 444 206 151 167 128 196 225 169 135 38 22 45 53 10 4 82 140 63 38 17 1
2 0 0 198 106 16 0 0 3 408 773 725 877 904 1233 1371 1390 1311 1166 952 896 832 729 804 617 559 626 495 457 487 466 372 309 217 77 154 95 87 79 45 35 6 0 0
104 204 185 198 230 184 0 2 0 22 975 1078 1173 1407 1367 1443 1427 1284 1021 1014 844 635 485 403 212 247 391 564 495 313 87 19 17 14 0 37 41 39 45 39 24 13 1 0
1 117 30 21 261 55 53 80 100 1332 1351 1279 1392 1563 1438 1308 974 1029 862 888 865 507 172 42 0 53 258 122 123 25 0 0 3 0 0 1 0 8 5 15 20 9 1 5
0 12 0 57 0 0 0 0 19 353 1377 1327 1377 1471 1382 1158 826 302 106 182 17 6 0 0 0 0 3 4 8 3 3 1 0 0 0 0 0 0 0 0 0 0 0 0
0 0 0 0 0 0 0 0 6 0 1439 1244 1279 1100 796 378 95 39 22 7 0 0 0 0 0 0 0 11 3 0 19 52 16 0 0 0 0 0 0 0 0 0 0 0
0 0 0 0 0 0 0 0 0 1019 1208 907 923 738 450 277 160 54 29 13 0 0 2 0 0 0 0 12 1 1 63 64 56 115 1 0 0 0 0 0 0 0 0 0
4 6 0 0 0 0 10 5 56 744 1167 1038 936 698 498 364 220 165 53 0 0 0 0 0 0 6 0 3 3 73 65 77 88 73 67 64 24 14 0 0 0 0 0 0
0 0 0 0 0 1 73 25 6 405 911 960 932 744 582 379 293 137 4 0 0 0 0 0 0 8 35 42 52 84 73 80 127 102 94 97 116 137 35 8 4 0 0 0
0 0 0 14 0 23 3 36 58 333 916 788 721 706 516 308 66 1 0 0 0 0 0 0 0 4 68 54 87 149 194 140 250 290 208 190 225 189 124 136 63 0 0 0
1 2 0 52 13 37 0 21 54 25 690 484 390 385 132 19 0 0 0 0 0 0 0 0 7 22 11 45 133 189 234 197 314 421 343 322 343 273 187 148 105 76 10 0
0 19 23 7 0 38 0 0 75 503 369 163 62 2 0 2 0 0 0 0 0 0 0 5 60 39 59 88 306 163 305 245 248 358 442 439 366 295 238 184 217 211 4 0
0 6 0 32 19 6 0 0 364 236 129 42 7 29 49 43 0 0 0 0 0 0 4 23 41 32 47 102 228 205 218 177 39 104 399 464 51 40 22 4 24 0 0 0
0 45 75 68 201 112 11 1 149 102 88 74 101 97 51 1 0 0 0 0 0 15 0 5 3 57 59 7 0 0 0 34 0 1 21 0 0 0 0 0 0 0 0 0
2 25 51 139 139 42 53 90 10 23 115 275 114 48 54 26 0 2 2 0 7 0 57 0 0 0 14 12 0 0 0 0 0 0 0 0 0 0 0 0 0 0 0 0
17 35 43 59 68 36 0 0 44 0 37 145 237 572 441 279 152 73 79 50 126 116 27 0 1 0 0 7 0 0 0 0 0 0 0 0 0 0 0 0 0 0 0 0
42 67 55 138 174 65 0 0 10 0 0 27 93 209 700 625 462 373 286 247 570 68 24 14 42 8 0 0 0 0 0 0 0 0 0 0 0 0 0 3 13 18 9 8
30 43 149 336 128 129 20 0 0 0 0 0 0 4 198 872 925 690 559 608 565 95 86 56 42 0 0 0 0 0 0 0 0 0 0 0 0 5 12 28 13 3 9 10
13 18 310 412 204 123 35 0 0 0 0 0 0 2 24 426 1013 778 869 913 615 199 70 104 73 0 0 0 0 0 0 0 15 127 10 9 9 10 20 27 38 72 96 75
36 221 26 6 14 68 58 7 28 4 4 10 20 48 180 1087 1171 873 980 799 387 228 149 116 2 0 0 0 0 0 0 8 12 11 79 226 313 267 226 221 173 146 97 72
105 49 20 1 5 34 47 2 34 142 478 601 594 507 577 423 670 938 587 355 348 362 40 50 21 0 4 20 63 84 71 80 138 239 289 190 132 121 118 146 100 78 9 0

GFSNGP_con_mlcape_168.txt.gz
CAPE
0 0 0 0 0 0 0 4 13 24 197 193 102 93 209 503 572 730 847 814 795 797 565 336 341 684 1010 1117 1142 1012 905 961 826 646 644 345 461 373 336 365 534 421 418 291
0 0 0 0 0 1 2 0 0 0 20 192 424 474 500 533 630 661 710 816 845 757 448 210 150 404 755 971 894 958 1036 784 686 554 414 205 254 276 217 120 168 224 455 320
0 0 0 0 0 0 0 0 0 0 0 0 378 589 587 575 601 472 730 739 770 597 203 232 425 666 722 834 804 757 649 534 496 444 214 83 31 305 231 94 77 113 64 321
0 0 0 0 0 0 0 0 0 0 5 4 452 597 592 621 558 755 893 787 808 536 157 117 91 275 387 382 323 396 426 428 406 343 242 107 15 82 117 90 19 11 5 0
0 0 0 5 8 0 0 3 0 0 0 8 236 431 565 679 596 815 851 828 695 139 0 0 0 0 0 0 1 27 148 224 175 180 250 156 77 17 3 0 0 0 0 4
0 0 0 1 30 41 4 0 0 0 1 5 194 450 461 635 745 825 793 730 430 18 17 0 0 0 0 0 0 0 0 0 0 0 0 0 1 0 0 0 46 75 85 34
0 0 0 0 27 28 8 0 0 0 0 14 203 436 383 622 788 809 758 718 368 241 95 0 7 8 9 8 46 15 46 6 0 0 3 0 0 0 0 45 17 6 3 0
0 0 1 0 61 25 0 0 38 47 44 129 201 238 500 751 808 842 808 655 411 227 101 181 110 175 257 403 423 361 309 225 141 3 7 3 8 1 0 7 1 1 0 1
5 2 2 0 0 0 0 0 16 331 137 469 444 607 723 813 895 928 818 671 524 694 625 381 361 405 475 465 279 78 35 11 1 0 0 2 1 9 26 3 8 1 0 0
0 5 0 0 0 0 0 0 0 71 946 922 919 960 951 983 1001 982 918 846 746 577 243 85 137 194 130 195 51 0 0 0 0 0 0 0 0 0 0 0 5 7 2 2
0 0 0 5 0 0 0 0 0 26 801 1152 1092 1115 1100 1204 1176 1122 1001 797 515 257 34 3 1 11 3 0 4 4 0 0 0 0 0 0 0 0 0 0 0 5 4 0
0 0 0 0 0 0 0 0 0 0 299 1321 1311 1255 1351 1115 765 716 673 535 211 36 0 0 0 0 0 0 0 3 5 1 0 0 0 0 0 0 0 0 0 0 0 0
0 0 0 0 0 0 0 0 0 0 18 335 1332 1107 906 712 552 463 235 30 6 0 0 0 0 0 0 1 3 2 20 16 3 0 0 0 0 0 0 0 0 0 0 0
0 0 0 0 0 0 0 0 6 138 304 834 1020 934 693 402 28 15 0 0 0 0 0 0 0 0 0 1 2 4 25 4 15 28 1 0 4 3 1 0 0 0 0 0
0 0 0 0 0 0 0 0 5 411 525 641 528 615 473 233 63 52 2 0 0 0 0 0 0 0 0 0 1 19 15 27 40 81 73 93 85 88 6 3 0 0 0 0
0 0 0 0 0 0 0 0 0 344 361 13 76 493 385 201 131 81 4 0 0 0 0 0 0 0 0 0 0 0 0 19 40 64 66 109 162 201 135 91 39 0 0 0
0 0 0 0 0 4 39 0 29 0 72 234 346 379 271 193 129 15 0 0 0 0 0 0 0 0 0 0 0 8 24 11 42 75 86 106 222 299 286 288 189 51 0 0
0 0 0 0 15 58 31 75 110 17 18 26 127 222 210 80 26 0 0 0 0 0 0 0 0 0 0 0 0 8 12 2 34 49 73 104 155 205 260 212 181 131 62 7
0 0 0 0 2 0 0 0 0 1 0 91 74 117 35 16 0 0 0 0 0 0 0 0 5 0 0 0 69 57 81 62 11 31 34 59 92 103 84 143 149 150 114 5
18 0 0 8 0 0 0 0 0 16 90 164 54 28 13 0 0 0 0 0 0 0 0 12 54 5 19 65 113 130 11 34 44 3 6 22 31 0 0 0 0 2 0 0
0 0 0 32 4 2 0 3 11 15 41 56 29 30 4 0 0 0 0 0 0 0 0 0 5 0 17 28 0 0 0 0 0 0 0 0 0 0 0 0 0 0 0 0
0 1 10 45 53 41 30 13 5 2 10 8 34 3 0 0 0 0 0 0 0 0 0 0 0 0 13 17 0 0 0 0 0 0 0 0 0 0 0 0 0 0 0 0
0 3 13 38 57 37 1 0 0 25 5 59 124 40 0 0 0 0 0 0 0 0 0 0 0 0 0 0 0 0 0 0 0 0 0 0 0 0 0 0 0 0 3 0
23 110 88 59 118 16 0 0 14 4 4 0 65 231 129 100 53 22 15 11 73 66 53 14 0 0 0 0 0 0 0 0 0 0 0 0 0 0 0 0 0 0 0 0
49 75 59 16 38 41 49 45 65 8 0 0 0 26 162 377 519 383 305 182 148 171 158 37 5 3 0 0 0 0 0 0 0 0 0 0 4 1 0 1 5 9 12 12
10 9 43 66 36 7 3 20 58 40 27 3 0 0 3 10 32 110 191 424 309 257 251 119 64 22 1 0 0 0 0 0 0 0 2 26 27 21 12 2 0 0 4 11
9 0 2 17 15 23 0 3 1 3 22 6 18 45 31 38 84 168 204 258 209 149 149 40 8 5 0 0 1 0 1 0 0 0 1 3 2 38 27 2 6 5 0 1

GFSNGP_con_mlcape_171.txt.gz
CAPE
0 0 0 0 0 0 0 0 0 13 96 141 112 127 336 198 375 520 840 885 844 811 760 741 713 733 858 739 542 332 190 88 63 89 407 452 457 292 361 286 317 248 252 241
0 0 0 0 0 0 0 0 0 0 0 15 208 211 263 331 467 693 949 1003 868 748 637 537 499 636 842 950 977 967 884 726 525 361 280 342 489 321 174 173 73 198 204 208
0 0 0 0 0 0 0 0 0 0 0 32 379 324 341 434 606 846 1019 1012 785 642 242 108 311 490 516 660 810 807 781 880 801 654 610 492 374 246 204 83 1 90 78 137
1 0 0 0 0 0 0 0 0 0 0 3 382 462 483 503 667 960 999 888 742 509 46 102 229 242 308 396 459 479 512 504 445 350 268 177 267 208 167 173 107 134 48 35
2 0 0 0 0 2 0 0 0 0 0 0 14 318 595 649 844 938 814 817 821 378 12 0 1 15 22 63 152 235 298 344 270 255 239 83 25 8 5 23 28 17 8 15
0 0 0 0 0 0 0 0 0 0 0 20 136 220 451 661 664 799 805 904 722 193 0 0 0 0 0 0 0 0 0 0 18 58 188 161 55 1 0 0 0 0 0 0
0 0 0 0 0 0 7 0 0 0 0 0 130 376 448 502 593 792 846 822 540 65 0 0 0 0 0 0 0 0 0 0 0 0 0 0 0 0 0 1 0 0 0 0
0 0 0 0 10 4 0 0 0 0 0 0 26 106 365 553 673 775 803 736 407 19 0 0 0 0 2 126 39 186 277 183 61 12 28 0 1 0 0 3 0 0 0 0
0 0 0 0 0 0 0 0 0 0 0 59 108 51 314 536 672 793 804 691 295 14 0 20 68 63 257 376 322 268 104 32 0 1 1 2 3 2 3 4 0 0 1 1
0 2 0 0 0 0 0 0 0 0 1 788 415 291 477 591 677 788 730 606 309 140 187 279 206 260 389 336 154 46 0 0 0 0 0 0 0 0 0 1 0 0 0 1
0 0 0 0 0 0 0 0 0 0 14 351 1245 739 587 679 752 779 725 578 387 310 404 348 217 247 230 42 0 0 1 0 0 0 0 0 0 0 0 0 0 0 0 0
0 0 0 0 0 0 0 0 0 0 0 116 1113 1100 866 830 858 808 748 598 604 368 144 25 4 4 12 0 0 0 0 2 0 0 0 0 0 0 0 0 0 0 0 0
0 0 0 0 0 0 0 0 0 0 0 72 599 1233 937 759 824 741 618 622 445 146 0 0 0 0 0 0 0 0 1 7 0 0 0 0 0 0 0 0 0 0 0 0
0 0 0 0 0 0 0 0 0 0 125 428 480 884 699 411 749 735 704 486 209 13 0 0 0 0 0 1 2 2 11 9 0 0 0 0 0 0 0 0 0 0 0 0
0 0 0 0 0 0 0 0 0 0 132 541 880 358 473 46 377 610 355 308 36 0 0 0 0 0 0 0 0 2 8 5 7 12 9 0 1 0 0 0 0 0 0 0
0 0 0 0 0 0 0 0 0 0 374 395 498 48 6 24 13 118 88 24 7 0 0 0 0 0 0 0 0 6 1 4 13 41 25 24 28 52 34 25 25 8 0 0
0 0 0 0 0 0 0 0 0 0 207 315 233 301 64 13 35 0 0 6 0 0 0 0 0 0 0 0 0 0 0 7 12 13 10 13 25 45 43 78 90 19 0 0
0 0 0 0 0 0 0 0 0 0 0 245 0 106 136 108 35 7 7 0 0 0 0 0 0 0 0 0 0 0 7 9 19 22 19 18 34 34 42 37 52 29 2 0
0 0 0 0 0 0 0 45 0 0 0 78 23 14 39 85 68 7 0 0 0 0 0 0 0 0 0 0 0 5 10 15 18 28 28 35 34 25 21 21 21 14 12 7
0 0 0 0 0 0 1 3 20 9 1 5 54 85 46 44 2 0 0 0 0 0 0 0 0 0 0 0 0 13 22 33 28 16 16 22 20 13 8 0 3 6 2 0
181 120 0 0 0 0 4 11 2 6 0 0 19 75 43 13 0 0 0 0 0 0 0 0 0 0 0 0 33 44 31 0 4 9 10 4 0 0 0 0 0 0 0 0
0 0 0 0 25 46 29 19 9 0 8 16 20 40 20 15 0 0 0 0 0 0 0 0 4 19 0 17 0 0 0 0 0 0 0 0 0 0 0 0 0 0 0 0
0 7 25 33 52 81 65 28 16 20 2 32 39 45 36 0 0 0 0 0 0 0 0 0 0 2 0 0 0 0 0 0 0 0 0 0 0 0 0 0 0 0 0 0
33 36 4 0 53 31 24 36 8 41 2 0 57 19 6 0 0 0 0 0 0 0 0 0 0 0 0 0 0 0 0 0 0 0 0 0 0 0 0 0 0 0 0 0
133 74 17 66 54 27 1 0 0 0 0 0 0 45 41 50 71 60 6 2 2 1 0 0 0 0 0 0 0 0 0 0 0 0 0 0 0 0 0 0 0 0 0 0
30 40 40 56 17 9 0 0 0 0 1 0 0 0 12 46 78 75 93 135 167 61 33 60 51 11 21 0 0 0 0 0 0 0 0 0 0 0 0 0 1 0 0 0
18 4 10 2 0 1 0 0 6 9 0 0 0 0 0 0 1 24 70 143 162 123 90 62 47 18 19 2 0 0 0 0 0 0 0 0 2 1 2 4 0 0 0 0